UTA7775 USRO-USRR

Flight info

Callsign UTA7775
Flight time 0h 35m
Altitude 20000
Route DINOL2G DINOL T797 INDUS INDUS1L
Aircraft B738/M-SDE2E3FGHIRWXY/LB1

Departure

Time 2026-04-22 18:22
Airport Noyabrsk Airport (USRO)

Arrival

Time 2026-04-22 18:57
Airport Surgut International Airport (USRR)
Time Latitude Longitude Altitude Speed Heading
2026-04-22 18:07 63.18313 75.27308 454 ft 0 kts 204°
2026-04-22 18:15 63.18294 75.27282 452 ft 6 kts 218°
2026-04-22 18:16 63.18275 75.27208 454 ft 2 kts 258°
2026-04-22 18:16 63.18279 75.27174 453 ft 2 kts 296°
2026-04-22 18:16 63.18286 75.27142 453 ft 2 kts 295°
2026-04-22 18:16 63.18334 75.26972 455 ft 13 kts 323°
2026-04-22 18:17 63.18409 75.26930 456 ft 9 kts 11°
2026-04-22 18:17 63.18453 75.26967 455 ft 6 kts 22°
2026-04-22 18:17 63.18537 75.27053 451 ft 15 kts 28°
2026-04-22 18:17 63.18628 75.27151 449 ft 14 kts 25°
2026-04-22 18:18 63.18725 75.27253 448 ft 16 kts 26°
2026-04-22 18:18 63.18820 75.27355 435 ft 15 kts 26°
2026-04-22 18:18 63.18905 75.27442 433 ft 12 kts 24°
2026-04-22 18:18 63.18987 75.27524 430 ft 14 kts 24°
2026-04-22 18:19 63.19068 75.27606 423 ft 12 kts 25°
2026-04-22 18:19 63.19152 75.27693 423 ft 14 kts 25°
2026-04-22 18:19 63.19239 75.27785 422 ft 14 kts 25°
2026-04-22 18:19 63.19317 75.27888 432 ft 12 kts 34°
2026-04-22 18:20 63.19342 75.27939 424 ft 0 kts 33°
2026-04-22 18:20 63.19367 75.27961 424 ft 2 kts 10°
2026-04-22 18:20 63.19384 75.27953 424 ft 1 kts 341°
2026-04-22 18:20 63.19394 75.27936 437 ft 0 kts 303°
2026-04-22 18:21 63.19394 75.27923 426 ft 0 kts 264°
2026-04-22 18:21 63.19377 75.27880 424 ft 2 kts 199°
2026-04-22 18:21 63.19311 75.27843 435 ft 20 kts 203°
2026-04-22 18:21 63.18932 75.27452 431 ft 111 kts 205°
2026-04-22 18:22 63.17958 75.26451 597 ft 190 kts 205°
2026-04-22 18:22 63.16721 75.24915 1233 ft 209 kts 207°
2026-04-22 18:22 63.15452 75.23082 1567 ft 235 kts 209°
2026-04-22 18:22 63.14042 75.20658 1678 ft 261 kts 217°
2026-04-22 18:23 63.12786 75.17977 1751 ft 244 kts 223°
2026-04-22 18:23 63.11668 75.15197 1700 ft 242 kts 224°
2026-04-22 18:23 63.10519 75.12482 1673 ft 241 kts 220°
2026-04-22 18:24 63.08130 75.08517 2878 ft 206 kts 203°
2026-04-22 18:24 63.06866 75.07019 3547 ft 194 kts 201°
2026-04-22 18:24 63.04734 75.04161 4873 ft 185 kts 212°
2026-04-22 18:25 63.03685 75.02346 5582 ft 198 kts 217°
2026-04-22 18:25 63.02621 75.00294 6289 ft 207 kts 220°
2026-04-22 18:25 63.01488 74.98268 6973 ft 217 kts 214°
2026-04-22 18:26 62.98806 74.94277 8379 ft 247 kts 214°
2026-04-22 18:26 62.97386 74.92098 9060 ft 249 kts 215°
2026-04-22 18:26 62.95982 74.89882 9706 ft 249 kts 215°
2026-04-22 18:26 62.94559 74.87598 9752 ft 259 kts 215°
2026-04-22 18:27 62.93048 74.85142 9991 ft 285 kts 216°
2026-04-22 18:27 62.91393 74.82436 10482 ft 304 kts 216°
2026-04-22 18:27 62.89695 74.79645 11427 ft 306 kts 215°
2026-04-22 18:27 62.87994 74.76843 12500 ft 305 kts 215°
2026-04-22 18:28 62.86302 74.74055 13533 ft 304 kts 215°
2026-04-22 18:28 62.84603 74.71259 14406 ft 308 kts 215°
2026-04-22 18:28 62.82902 74.68463 15243 ft 311 kts 214°
2026-04-22 18:28 62.81131 74.65578 16057 ft 315 kts 214°
2026-04-22 18:29 62.79384 74.62760 16860 ft 318 kts 214°
2026-04-22 18:29 62.77595 74.59882 17666 ft 321 kts 214°
2026-04-22 18:29 62.75786 74.56975 18405 ft 325 kts 214°
2026-04-22 18:29 62.73959 74.54041 19138 ft 328 kts 214°
2026-04-22 18:30 62.72111 74.51076 19882 ft 331 kts 214°
2026-04-22 18:30 62.68351 74.45054 21129 ft 340 kts 215°
2026-04-22 18:30 62.66429 74.41985 21756 ft 343 kts 216°
2026-04-22 18:31 62.64499 74.38904 22385 ft 346 kts 216°
2026-04-22 18:31 62.62552 74.35801 22511 ft 345 kts 216°
2026-04-22 18:31 62.60665 74.32798 22482 ft 327 kts 216°
2026-04-22 18:31 62.58881 74.29962 22468 ft 309 kts 216°
2026-04-22 18:32 62.57181 74.27266 22458 ft 295 kts 216°
2026-04-22 18:32 62.55559 74.24701 22447 ft 283 kts 216°
2026-04-22 18:32 62.53966 74.22184 22463 ft 287 kts 216°
2026-04-22 18:32 62.52306 74.19560 22617 ft 304 kts 216°
2026-04-22 18:33 62.50549 74.16780 22785 ft 321 kts 217°
2026-04-22 18:33 62.48705 74.13864 22849 ft 330 kts 217°
2026-04-22 18:33 62.46897 74.11011 22820 ft 314 kts 217°
2026-04-22 18:33 62.45176 74.08300 22809 ft 298 kts 217°
2026-04-22 18:34 62.43526 74.05704 22815 ft 291 kts 217°
2026-04-22 18:34 62.41896 74.03143 22822 ft 289 kts 217°
2026-04-22 18:34 62.40270 74.00589 22831 ft 290 kts 217°
2026-04-22 18:34 62.38632 73.98021 22831 ft 290 kts 217°
2026-04-22 18:35 62.37001 73.95466 22828 ft 290 kts 217°
2026-04-22 18:35 62.35365 73.92907 22826 ft 290 kts 217°
2026-04-22 18:35 62.33732 73.90356 22824 ft 290 kts 217°
2026-04-22 18:35 62.32093 73.87801 22823 ft 290 kts 217°
2026-04-22 18:36 62.30461 73.85261 22826 ft 290 kts 217°
2026-04-22 18:36 62.28830 73.82725 22822 ft 289 kts 217°
2026-04-22 18:36 62.27219 73.80221 22823 ft 289 kts 217°
2026-04-22 18:36 62.25568 73.77659 22823 ft 290 kts 217°
2026-04-22 18:37 62.23935 73.75125 22818 ft 289 kts 217°
2026-04-22 18:37 62.22308 73.72609 22813 ft 289 kts 217°
2026-04-22 18:37 62.21233 73.70949 22812 ft 289 kts 217°
2026-04-22 18:37 62.19076 73.67624 22809 ft 288 kts 217°
2026-04-22 18:38 62.17446 73.65112 22816 ft 288 kts 217°
2026-04-22 18:38 62.15812 73.62603 22813 ft 289 kts 217°
2026-04-22 18:38 62.14185 73.60077 22814 ft 290 kts 218°
2026-04-22 18:39 62.10944 73.54917 22815 ft 291 kts 218°
2026-04-22 18:39 62.09326 73.52338 22813 ft 291 kts 218°
2026-04-22 18:39 62.07699 73.49753 22814 ft 292 kts 218°
2026-04-22 18:39 62.06071 73.47169 22812 ft 292 kts 218°
2026-04-22 18:40 62.04438 73.44583 22804 ft 293 kts 218°
2026-04-22 18:40 62.02803 73.41997 22806 ft 293 kts 217°
2026-04-22 18:40 62.01165 73.39414 22797 ft 292 kts 217°
2026-04-22 18:40 62.00070 73.37691 22685 ft 287 kts 217°
2026-04-22 18:41 61.98492 73.35225 22272 ft 286 kts 216°
2026-04-22 18:41 61.96680 73.33303 21776 ft 290 kts 204°
2026-04-22 18:41 61.94758 73.32171 21326 ft 291 kts 200°
2026-04-22 18:41 61.92781 73.31178 20846 ft 292 kts 199°
2026-04-22 18:42 61.90805 73.30217 20403 ft 290 kts 199°
2026-04-22 18:42 61.88848 73.29266 19969 ft 289 kts 199°
2026-04-22 18:42 61.86885 73.28305 19555 ft 289 kts 198°
2026-04-22 18:42 61.84943 73.27413 19101 ft 284 kts 198°
2026-04-22 18:43 61.83051 73.26468 18947 ft 274 kts 199°
2026-04-22 18:43 61.81235 73.25545 18867 ft 263 kts 199°
2026-04-22 18:43 61.79483 73.24653 18628 ft 257 kts 199°
2026-04-22 18:43 61.77744 73.23765 18269 ft 257 kts 199°
2026-04-22 18:44 61.76011 73.22882 17905 ft 256 kts 199°
2026-04-22 18:44 61.74280 73.22005 17567 ft 255 kts 199°
2026-04-22 18:44 61.72553 73.21132 17200 ft 255 kts 199°
2026-04-22 18:44 61.70828 73.20261 16843 ft 255 kts 199°
2026-04-22 18:45 61.69104 73.19394 16487 ft 254 kts 199°
2026-04-22 18:45 61.67384 73.18531 16141 ft 254 kts 198°
2026-04-22 18:45 61.65664 73.17670 15801 ft 253 kts 198°
2026-04-22 18:45 61.63960 73.16818 15471 ft 252 kts 198°
2026-04-22 18:46 61.62252 73.15964 15104 ft 252 kts 198°
2026-04-22 18:46 61.60551 73.15115 14759 ft 252 kts 198°
2026-04-22 18:46 61.58815 73.14277 14018 ft 259 kts 197°
2026-04-22 18:46 61.57040 73.13458 13264 ft 263 kts 198°
2026-04-22 18:47 61.55281 73.12531 12771 ft 258 kts 199°
2026-04-22 18:47 61.53562 73.11585 12372 ft 253 kts 198°
2026-04-22 18:47 61.51870 73.10813 11960 ft 246 kts 197°
2026-04-22 18:47 61.50223 73.10007 11579 ft 241 kts 198°
2026-04-22 18:48 61.48595 73.09212 11165 ft 238 kts 196°
2026-04-22 18:48 61.46991 73.08344 10524 ft 244 kts 198°
2026-04-22 18:48 61.45307 73.07500 9762 ft 251 kts 195°
2026-04-22 18:48 61.43610 73.06732 9222 ft 245 kts 197°
2026-04-22 18:49 61.42020 73.05957 8658 ft 229 kts 198°
2026-04-22 18:49 61.40531 73.05266 8107 ft 215 kts 199°
2026-04-22 18:49 61.39102 73.04517 7513 ft 207 kts 191°
2026-04-22 18:49 61.37678 73.04835 6937 ft 208 kts 167°
2026-04-22 18:50 61.36425 73.06361 6351 ft 212 kts 143°
2026-04-22 18:50 61.35399 73.08465 5820 ft 207 kts 140°
2026-04-22 18:50 61.34529 73.10899 5222 ft 210 kts 117°
2026-04-22 18:50 61.34221 73.13852 4657 ft 209 kts 102°
2026-04-22 18:51 61.34035 73.16764 4090 ft 205 kts 100°
2026-04-22 18:51 61.33872 73.19691 3523 ft 202 kts 101°
2026-04-22 18:51 61.33707 73.22576 2947 ft 198 kts 101°
2026-04-22 18:51 61.33568 73.25402 2374 ft 194 kts 101°
2026-04-22 18:52 61.33402 73.28139 1972 ft 182 kts 99°
2026-04-22 18:52 61.33248 73.30604 1820 ft 165 kts 100°
2026-04-22 18:52 61.33192 73.32871 1806 ft 155 kts 81°
2026-04-22 18:52 61.33204 73.35241 1801 ft 167 kts 117°
2026-04-22 18:53 61.32390 73.36635 1843 ft 149 kts 174°
2026-04-22 18:53 61.31533 73.35922 1847 ft 133 kts 234°
2026-04-22 18:53 61.31000 73.34439 1824 ft 124 kts 221°
2026-04-22 18:53 61.30568 73.32940 1819 ft 127 kts 265°
2026-04-22 18:54 61.30777 73.31110 1836 ft 133 kts 288°
2026-04-22 18:54 61.31122 73.29324 1831 ft 133 kts 289°
2026-04-22 18:54 61.31476 73.27534 1829 ft 133 kts 289°
2026-04-22 18:54 61.31863 73.25782 1817 ft 135 kts 302°
2026-04-22 18:55 61.32678 73.24871 1840 ft 138 kts 349°
2026-04-22 18:55 61.33619 73.25321 1579 ft 148 kts 43°
2026-04-22 18:55 61.33905 73.27173 1621 ft 139 kts 84°
2026-04-22 18:55 61.34029 73.29166 1608 ft 138 kts 85°
2026-04-22 18:56 61.34149 73.31155 1448 ft 144 kts 77°
2026-04-22 18:56 61.34385 73.33283 909 ft 150 kts 89°
2026-04-22 18:56 61.34366 73.35346 585 ft 137 kts 92°
2026-04-22 18:56 61.34385 73.37260 305 ft 126 kts 89°
2026-04-22 18:57 61.34389 73.38949 195 ft 106 kts 87°
2026-04-22 18:57 61.34389 73.39923 206 ft 33 kts 91°
2026-04-22 18:57 61.34379 73.40152 205 ft 11 kts 121°
2026-04-22 18:57 61.34308 73.40200 209 ft 11 kts 180°
2026-04-22 18:58 61.34233 73.40201 206 ft 11 kts 180°
2026-04-22 18:58 61.34182 73.40249 212 ft 8 kts 108°
2026-04-22 18:58 61.34181 73.40360 215 ft 8 kts 88°
2026-04-22 18:58 61.34180 73.40468 207 ft 7 kts 89°
2026-04-22 18:59 61.34180 73.40571 214 ft 7 kts 89°
2026-04-22 18:59 61.34181 73.40672 207 ft 7 kts 89°
2026-04-22 18:59 61.34182 73.40771 210 ft 7 kts 89°
2026-04-22 18:59 61.34183 73.40868 213 ft 7 kts 89°
2026-04-22 19:00 61.34184 73.40964 213 ft 7 kts 89°
2026-04-22 19:00 61.34185 73.41058 215 ft 6 kts 89°